Hourly Weather Bolshie Vikorovichi

Today, 16 June, Wednesday

Time Temperature Precipitation Wind Pressure Humidity
00:00 +16°C° 0 mm 2 mps 749 mmHg 89%
01:00 +15°C° 0 mm 2 mps 749 mmHg 91%
02:00 +15°C° 0 mm 2 mps 749 mmHg 93%
03:00 +15°C° 0 mm 2 mps 749 mmHg 94%
04:00 +15°C° 0 mm 2 mps 750 mmHg 94%
05:00 +15°C° 0 mm 2 mps 750 mmHg 95%
06:00 +17°C° 0 mm 2 mps 750 mmHg 88%
07:00 +18°C° 0 mm 3 mps 750 mmHg 82%
08:00 +20°C° 0 mm 3 mps 750 mmHg 75%
09:00 +21°C° 0 mm 3 mps 751 mmHg 70%
10:00 +21°C° 0 mm 3 mps 751 mmHg 65%
11:00 +22°C° 0 mm 3 mps 751 mmHg 60%
12:00 +23°C° 0 mm 4 mps 751 mmHg 57%
13:00 +25°C° 0 mm 4 mps 751 mmHg 54%
14:00 +25°C° 0 mm 4 mps 751 mmHg 52%
15:00 +25°C° 0 mm 4 mps 751 mmHg 52%
16:00 +25°C° 0 mm 4 mps 751 mmHg 53%
17:00 +23°C° 0 mm 4 mps 751 mmHg 54%
18:00 +22°C° 0 mm 3 mps 751 mmHg 61%
19:00 +20°C° 0 mm 3 mps 751 mmHg 69%
20:00 +18°C° 0 mm 2 mps 751 mmHg 76%
21:00 +17°C° 0 mm 2 mps 752 mmHg 80%
22:00 +15°C° 0 mm 2 mps 752 mmHg 83%
23:00 +14°C° 0 mm 2 mps 752 mmHg 86%

Tomorrow, 17 June, Thursday

Time Temperature Precipitation Wind Pressure Humidity
00:00 +14°C° 0 mm 2 mps 752 mmHg 89%
01:00 +13°C° 0 mm 2 mps 753 mmHg 91%
02:00 +13°C° 0 mm 2 mps 753 mmHg 94%
03:00 +13°C° 0 mm 2 mps 753 mmHg 93%
04:00 +13°C° 0 mm 2 mps 753 mmHg 92%
05:00 +14°C° 0 mm 2 mps 753 mmHg 92%
06:00 +16°C° 0 mm 2 mps 754 mmHg 83%
07:00 +18°C° 0 mm 3 mps 754 mmHg 74%
08:00 +20°C° 0 mm 3 mps 754 mmHg 66%
09:00 +21°C° 0 mm 3 mps 754 mmHg 61%
10:00 +24°C° 0 mm 3 mps 754 mmHg 55%
11:00 +25°C° 0 mm 3 mps 754 mmHg 50%
12:00 +26°C° 0 mm 3 mps 754 mmHg 49%
13:00 +27°C° 0 mm 3 mps 754 mmHg 49%
14:00 +28°C° 0 mm 3 mps 754 mmHg 48%
15:00 +28°C° 0 mm 3 mps 754 mmHg 51%
16:00 +28°C° 0 mm 3 mps 754 mmHg 53%
17:00 +28°C° 0 mm 3 mps 754 mmHg 56%
18:00 +26°C° 0 mm 3 mps 754 mmHg 63%
19:00 +24°C° 0 mm 3 mps 754 mmHg 71%
20:00 +21°C° 0 mm 2 mps 754 mmHg 79%
21:00 +20°C° 0 mm 2 mps 755 mmHg 82%
22:00 +19°C° 0 mm 2 mps 755 mmHg 85%
23:00 +18°C° 0 mm 2 mps 755 mmHg 88%

Day after tomorrow, 18 June, Friday

Time Temperature Precipitation Wind Pressure Humidity
00:00 +18°C° 0 mm 2 mps 755 mmHg 89%
01:00 +17°C° 0 mm 2 mps 755 mmHg 90%
02:00 +17°C° 0 mm 2 mps 755 mmHg 91%
03:00 +17°C° 0 mm 2 mps 755 mmHg 92%
04:00 +16°C° 0 mm 2 mps 755 mmHg 92%
05:00 +16°C° 0 mm 2 mps 756 mmHg 93%
06:00 +18°C° 0 mm 2 mps 756 mmHg 85%
07:00 +20°C° 0 mm 3 mps 756 mmHg 76%
08:00 +22°C° 0 mm 3 mps 756 mmHg 68%
09:00 +24°C° 0 mm 3 mps 756 mmHg 60%
10:00 +25°C° 0 mm 3 mps 756 mmHg 52%
11:00 +26°C° 0 mm 3 mps 756 mmHg 43%
12:00 +27°C° 0 mm 3 mps 756 mmHg 42%
13:00 +28°C° 0 mm 3 mps 755 mmHg 40%
14:00 +28°C° 0 mm 3 mps 755 mmHg 38%
15:00 +28°C° 0 mm 3 mps 755 mmHg 41%
16:00 +28°C° 0 mm 3 mps 755 mmHg 45%
17:00 +28°C° 0 mm 3 mps 755 mmHg 48%
18:00 +26°C° 0 mm 3 mps 755 mmHg 56%
19:00 +24°C° 0 mm 3 mps 755 mmHg 63%
20:00 +21°C° 0 mm 3 mps 755 mmHg 71%
21:00 +20°C° 0 mm 3 mps 755 mmHg 75%
22:00 +19°C° 0 mm 3 mps 755 mmHg 79%
23:00 +18°C° 0 mm 3 mps 755 mmHg 83%

19 June, Saturday

Time Temperature Precipitation Wind Pressure Humidity
00:00 +17°C° 0 mm 2 mps 755 mmHg 86%
01:00 +17°C° 0 mm 2 mps 756 mmHg 90%
02:00 +16°C° 0 mm 2 mps 756 mmHg 93%
03:00 +16°C° 0 mm 2 mps 756 mmHg 93%
04:00 +16°C° 0 mm 2 mps 756 mmHg 93%
05:00 +16°C° 0 mm 2 mps 756 mmHg 94%
06:00 +18°C° 0 mm 2 mps 756 mmHg 86%
07:00 +20°C° 0 mm 3 mps 756 mmHg 79%
08:00 +22°C° 0 mm 3 mps 756 mmHg 71%
09:00 +25°C° 0 mm 3 mps 756 mmHg 65%
10:00 +26°C° 0 mm 3 mps 756 mmHg 58%
11:00 +27°C° 0 mm 4 mps 755 mmHg 51%
12:00 +28°C° 0 mm 4 mps 755 mmHg 48%
13:00 +29°C° 0 mm 4 mps 755 mmHg 45%
14:00 +29°C° 0 mm 3 mps 754 mmHg 42%
15:00 +29°C° 0 mm 3 mps 754 mmHg 44%
16:00 +29°C° 0 mm 3 mps 754 mmHg 47%
17:00 +29°C° 0 mm 3 mps 754 mmHg 49%
18:00 +27°C° 0 mm 3 mps 754 mmHg 57%
19:00 +24°C° 0 mm 3 mps 754 mmHg 65%
20:00 +21°C° 0 mm 2 mps 754 mmHg 73%
21:00 +20°C° 0 mm 2 mps 754 mmHg 77%
22:00 +19°C° 0 mm 2 mps 754 mmHg 80%
23:00 +19°C° 0 mm 2 mps 754 mmHg 83%

20 June, Sunday

Time Temperature Precipitation Wind Pressure Humidity
00:00 +18°C° 0 mm 2 mps 754 mmHg 86%
01:00 +18°C° 0 mm 2 mps 754 mmHg 89%
02:00 +18°C° 0 mm 2 mps 754 mmHg 92%
03:00 +18°C° 0 mm 2 mps 754 mmHg 93%
04:00 +18°C° 0 mm 2 mps 754 mmHg 93%
05:00 +18°C° 0 mm 2 mps 754 mmHg 93%
06:00 +20°C° 0 mm 2 mps 754 mmHg 86%
07:00 +21°C° 0 mm 3 mps 754 mmHg 79%
08:00 +24°C° 0 mm 3 mps 754 mmHg 72%
09:00 +25°C° 0 mm 4 mps 754 mmHg 69%
10:00 +25°C° 0 mm 4 mps 753 mmHg 67%
11:00 +26°C° 0 mm 4 mps 753 mmHg 64%
12:00 +27°C° 0.2 mm 4 mps 753 mmHg 62%
13:00 +28°C° 0.2 mm 4 mps 753 mmHg 59%
14:00 +29°C° 0.2 mm 4 mps 752 mmHg 56%
15:00 +28°C° 0.1 mm 3 mps 752 mmHg 58%
16:00 +28°C° 0.1 mm 3 mps 752 mmHg 61%
17:00 +27°C° 0.1 mm 3 mps 752 mmHg 63%
18:00 +26°C° 0 mm 3 mps 752 mmHg 68%
19:00 +25°C° 0 mm 3 mps 752 mmHg 73%
20:00 +22°C° 0 mm 3 mps 752 mmHg 78%
21:00 +21°C° 0 mm 2 mps 752 mmHg 81%
22:00 +20°C° 0 mm 2 mps 752 mmHg 83%
23:00 +19°C° 0 mm 2 mps 752 mmHg 86%

21 June, Monday

Time Temperature Precipitation Wind Pressure Humidity
00:00 +19°C° 0 mm 2 mps 752 mmHg 88%
01:00 +18°C° 0 mm 2 mps 752 mmHg 90%
02:00 +18°C° 0 mm 2 mps 752 mmHg 93%
03:00 +18°C° 0 mm 2 mps 752 mmHg 93%
04:00 +18°C° 0 mm 2 mps 752 mmHg 93%
05:00 +18°C° 0 mm 2 mps 752 mmHg 94%
06:00 +20°C° 0 mm 2 mps 752 mmHg 86%
07:00 +21°C° 0 mm 3 mps 752 mmHg 78%
08:00 +23°C° 0 mm 4 mps 752 mmHg 71%
09:00 +25°C° 0 mm 4 mps 752 mmHg 64%
10:00 +26°C° 0 mm 4 mps 751 mmHg 57%
11:00 +28°C° 0 mm 5 mps 751 mmHg 50%
12:00 +28°C° 0 mm 4 mps 751 mmHg 47%
13:00 +29°C° 0 mm 4 mps 750 mmHg 45%
14:00 +30°C° 0 mm 4 mps 750 mmHg 42%
15:00 +29°C° 0 mm 4 mps 750 mmHg 45%
16:00 +29°C° 0 mm 4 mps 750 mmHg 49%
17:00 +29°C° 0 mm 4 mps 750 mmHg 53%
18:00 +27°C° 0 mm 4 mps 749 mmHg 59%
19:00 +26°C° 0 mm 4 mps 749 mmHg 65%
20:00 +24°C° 0 mm 3 mps 749 mmHg 71%
21:00 +22°C° 0 mm 3 mps 749 mmHg 77%
22:00 +21°C° 0 mm 3 mps 749 mmHg 83%
23:00 +20°C° 0 mm 3 mps 749 mmHg 88%
Show more